Location: Katzenstein
(51.7484°N, 10.2155°E)
Time: 10:37:34
(UTC+00:00)

Cosmos 1190 Rocket - Pass Details

Date: 17 February 2020
Orbit: 756 x 780 km, 74.1° (Epoch: 04 April)

Event Time Altitude Azimuth Distance (km) Brightness Sun altitude
Rises 05:08:33 0° 199° (SSW) 3,230 7.1 -13.3°
Reaches altitude 10° 05:10:55 10° 198° (SSW) 2,311 6.3 -13.0°
Maximum altitude 05:16:10 79° 112° (ESE) 795 4.2 -12.1°
Drops below altitude 10° 05:21:29 10° 27° (NNE) 2,341 6.8 -11.3°
Sets 05:23:53 0° 26° (NNE) 3,275 7.6 -11.0°
